TimeMST,TemperatureF,Dew PointF,Humidity,Sea Level PressureIn,VisibilityMPH,Wind Direction,Wind SpeedMPH,Gust SpeedMPH,PrecipitationIn,Events,Conditions,WindDirDegrees,DateUTC
12:15 AM,35.6,28.4,75,29.95,10.0,NNE,5.8,-,N/A,,Overcast,20,2012-11-25 07:15:00
12:35 AM,35.6,28.4,75,29.95,10.0,ENE,3.5,-,N/A,,Overcast,70,2012-11-25 07:35:00
12:55 AM,35.6,28.4,75,29.94,10.0,East,4.6,-,N/A,,Overcast,90,2012-11-25 07:55:00
1:15 AM,35.6,28.4,75,29.94,10.0,Calm,Calm,-,N/A,,Overcast,0,2012-11-25 08:15:00
1:55 AM,35.6,28.4,75,29.93,10.0,Calm,Calm,-,N/A,,Overcast,0,2012-11-25 08:55:00
2:15 AM,35.6,28.4,75,29.93,10.0,Calm,Calm,-,N/A,,Overcast,0,2012-11-25 09:15:00
2:35 AM,35.6,28.4,75,29.93,10.0,Calm,Calm,-,N/A,,Overcast,0,2012-11-25 09:35:00
2:55 AM,35.6,30.2,81,29.92,10.0,Calm,Calm,-,N/A,,Overcast,0,2012-11-25 09:55:00
3:15 AM,33.8,30.2,87,29.91,-9999.0,Calm,Calm,-,N/A,,Unknown,0,2012-11-25 10:15:00
3:35 AM,33.8,30.2,87,29.90,10.0,South,3.5,-,N/A,,Overcast,190,2012-11-25 10:35:00
3:55 AM,33.8,28.4,81,29.89,10.0,SSE,3.5,-,N/A,,Overcast,160,2012-11-25 10:55:00
4:15 AM,33.8,28.4,81,29.89,10.0,SE,4.6,-,N/A,,Overcast,140,2012-11-25 11:15:00
4:35 AM,33.8,28.4,81,29.89,10.0,SSE,3.5,-,N/A,,Overcast,150,2012-11-25 11:35:00
4:55 AM,33.8,28.4,81,29.88,10.0,Calm,Calm,-,N/A,,Overcast,0,2012-11-25 11:55:00
5:15 AM,35.6,28.4,75,29.88,10.0,Calm,Calm,-,N/A,,Overcast,0,2012-11-25 12:15:00
5:35 AM,33.8,30.2,87,29.89,10.0,Calm,Calm,-,N/A,,Overcast,0,2012-11-25 12:35:00
6:15 AM,33.8,30.2,87,29.88,3.0,NNW,3.5,-,N/A,,Overcast,330,2012-11-25 13:15:00
6:35 AM,33.8,32.0,93,29.88,3.0,NNW,3.5,-,N/A,,Overcast,340,2012-11-25 13:35:00
6:55 AM,32.0,32.0,100,29.88,4.0,North,4.6,-,N/A,,Overcast,350,2012-11-25 13:55:00
7:15 AM,32.0,32.0,100,29.88,2.0,North,3.5,-,N/A,,Overcast,350,2012-11-25 14:15:00
7:35 AM,32.0,32.0,100,29.88,0.5,North,6.9,-,N/A,,Overcast,10,2012-11-25 14:35:00
7:55 AM,32.0,32.0,100,29.89,1.8,NNE,6.9,-,N/A,,Overcast,20,2012-11-25 14:55:00
8:15 AM,32.0,32.0,100,29.89,3.0,North,8.1,-,N/A,,Overcast,10,2012-11-25 15:15:00
9:15 AM,32.0,32.0,100,29.90,10.0,NNE,5.8,-,N/A,,Overcast,30,2012-11-25 16:15:00
9:35 AM,30.2,30.2,100,29.90,10.0,NNE,10.4,-,N/A,,Overcast,30,2012-11-25 16:35:00
9:55 AM,32.0,30.2,93,29.91,4.0,NNE,10.4,-,N/A,,Overcast,20,2012-11-25 16:55:00
10:15 AM,32.0,32.0,100,29.91,1.5,North,4.6,-,N/A,,Overcast,10,2012-11-25 17:15:00
11:15 AM,33.8,30.2,87,29.92,10.0,NNW,12.7,-,N/A,,Overcast,340,2012-11-25 18:15:00
11:35 AM,33.8,30.2,87,29.92,10.0,North,11.5,-,N/A,,Overcast,350,2012-11-25 18:35:00
11:55 AM,33.8,30.2,87,29.91,10.0,NNW,15.0,-,N/A,,Overcast,340,2012-11-25 18:55:00
12:15 PM,33.8,30.2,87,29.91,7.0,North,13.8,-,N/A,,Overcast,350,2012-11-25 19:15:00
12:35 PM,33.8,30.2,87,29.91,10.0,North,12.7,-,N/A,,Overcast,360,2012-11-25 19:35:00
1:15 PM,33.8,30.2,87,29.93,10.0,North,12.7,19.6,N/A,,Mostly Cloudy,350,2012-11-25 20:15:00
1:35 PM,33.8,30.2,87,29.92,2.5,NNW,11.5,-,N/A,,Overcast,340,2012-11-25 20:35:00
1:55 PM,32.0,30.2,93,29.93,2.5,NNW,13.8,-,N/A,,Overcast,340,2012-11-25 20:55:00
2:15 PM,32.0,30.2,93,29.93,8.0,North,10.4,-,N/A,,Overcast,350,2012-11-25 21:15:00
2:35 PM,32.0,30.2,93,29.94,10.0,North,11.5,-,N/A,,Overcast,360,2012-11-25 21:35:00
2:55 PM,32.0,30.2,93,29.94,4.0,North,13.8,-,N/A,,Overcast,350,2012-11-25 21:55:00
3:15 PM,32.0,30.2,93,29.95,5.0,NNW,11.5,-,N/A,,Overcast,340,2012-11-25 22:15:00
3:35 PM,30.2,30.2,100,29.96,4.0,North,10.4,-,N/A,,Overcast,350,2012-11-25 22:35:00
3:55 PM,30.2,30.2,100,29.97,2.5,North,11.5,-,N/A,,Overcast,360,2012-11-25 22:55:00
4:15 PM,30.2,28.4,93,29.98,9.0,North,15.0,19.6,N/A,,Overcast,350,2012-11-25 23:15:00
4:35 PM,28.4,28.4,100,29.99,3.0,NNW,10.4,-,N/A,,Overcast,330,2012-11-25 23:35:00
4:55 PM,30.2,28.4,93,29.99,10.0,North,9.2,-,N/A,,Overcast,350,2012-11-25 23:55:00
5:15 PM,30.2,28.4,93,30.01,7.0,NNW,9.2,-,N/A,,Overcast,340,2012-11-26 00:15:00
5:35 PM,28.4,28.4,100,30.02,3.0,North,8.1,-,N/A,,Overcast,350,2012-11-26 00:35:00
5:55 PM,28.4,28.4,100,30.02,3.0,NNE,10.4,-,N/A,,Overcast,20,2012-11-26 00:55:00
6:15 PM,28.4,26.6,93,30.03,3.0,North,9.2,-,N/A,,Overcast,360,2012-11-26 01:15:00
6:35 PM,28.4,26.6,93,30.04,6.0,North,5.8,-,N/A,,Overcast,350,2012-11-26 01:35:00
6:55 PM,28.4,26.6,93,30.04,10.0,North,3.5,-,N/A,,Overcast,360,2012-11-26 01:55:00
7:15 PM,28.4,26.6,93,30.05,9.0,North,3.5,-,N/A,,Overcast,350,2012-11-26 02:15:00
7:55 PM,28.4,26.6,93,30.07,5.0,Calm,Calm,-,N/A,,Overcast,0,2012-11-26 02:55:00
8:15 PM,28.4,26.6,93,30.08,4.0,NNE,3.5,-,N/A,,Overcast,20,2012-11-26 03:15:00
8:35 PM,28.4,24.8,86,30.09,10.0,North,5.8,-,N/A,,Mostly Cloudy,10,2012-11-26 03:35:00
9:15 PM,26.6,24.8,93,30.11,10.0,NNW,10.4,-,N/A,,Overcast,340,2012-11-26 04:15:00
9:35 PM,28.4,24.8,86,30.11,10.0,NNW,10.4,-,N/A,,Overcast,340,2012-11-26 04:35:00
9:55 PM,26.6,24.8,93,30.12,10.0,North,11.5,-,N/A,,Overcast,350,2012-11-26 04:55:00
10:15 PM,26.6,24.8,93,30.13,7.0,North,11.5,-,N/A,,Overcast,350,2012-11-26 05:15:00
10:35 PM,26.6,26.6,100,30.14,4.0,North,12.7,18.4,N/A,,Overcast,360,2012-11-26 05:35:00
10:55 PM,26.6,24.8,93,30.15,3.0,North,12.7,18.4,N/A,,Overcast,350,2012-11-26 05:55:00
11:15 PM,26.6,24.8,93,30.16,5.0,North,10.4,-,N/A,,Overcast,350,2012-11-26 06:15:00
11:35 PM,26.6,24.8,93,30.17,5.0,North,11.5,18.4,N/A,,Overcast,350,2012-11-26 06:35:00
11:55 PM,24.8,24.8,100,30.18,10.0,North,10.4,-,N/A,,Overcast,350,2012-11-26 06:55:00